Regional Weather Roundup
Issued by NWS Wakefield, VA

Home | Current Version | Previous Version | Text Only | Print | Product List | Glossary On
Versions: 1 2 3 4 5 6 7 8 9 10 11 12 13 14 15 16 17 18 19 20 21 22 23 24 25 26 27 28
000
ASUS41 KAKQ 271915
RWRAKQ

REGIONAL WEATHER ROUNDUP
NATIONAL WEATHER SERVICE WAKEFIELD VA
300 PM EDT SAT MAY 27 2017

Note: "fair" indicates few or no clouds below 12,000 feet with no
significant weather and/or obstructions to visibility. * = Denotes
station may not report precipitation (e.g., rain,snow,etc.),
thunder or fog.

VAZ042-051-052>054-056-272000-
NORTHERN VIRGINIA

CITY           SKY/WX    TMP DP  RH WIND       PRES   REMARKS
WASH NATIONAL  LGT RAIN  71  63  75 NE7       29.89F
DULLES         LGT RAIN  67  60  78 NE7       29.90F
FORT BELVOIR   CLOUDY    71  62  72 CALM      29.89F
QUANTICO       CLOUDY    74  62  66 NE8       29.89S
FREDERICKSBRG* CLOUDY    80  64  57 CALM      29.86F
STAFFORD*      CLOUDY    76  66  70 NE3       29.92F
WARRENTON      CLOUDY    74  60  61 NE5       29.88F
CULPEPER*      CLOUDY    75  64  68 N6        29.89F
MANASSAS*      CLOUDY    74  62  66 NE5       29.89F
LEESBURG*      CLOUDY    68  63  83 E3        29.91F
WINCHESTER     CLOUDY    63  59  88 CALM      29.91S
FRONT ROYAL*   CLOUDY    68  63  83 NE7       29.89S
LURAY*         PTCLDY    77  64  65 NE8       29.87F
$$

VAZ048-049-060>072-079>083-272000-
CENTRAL AND SOUTH CENTRAL VIRGINIA

CITY           SKY/WX    TMP DP  RH WIND       PRES   REMARKS
RICHMOND       PTSUNNY   84  64  50 S10       29.85F
CHESTERFIELD*  NOT AVBL
PETERSBURG*    MOSUNNY   84  61  45 CALM      29.87F
HANOVER        CLOUDY    84  61  45 VRB6      29.86F
TAPPAHANNOCK*  CLOUDY    82  60  47 CALM      29.87F
QUINTON*       MOCLDY   N/A N/A N/A S5        29.85F
CHARLOTTSVILLE PTSUNNY   82  66  58 N5        29.86F
GORDONSVILLE*  MOCLDY    81  66  61 S3        29.85F
ORANGE*        MOSUNNY   81  64  57 S5        29.86F
LOUISA*        MOSUNNY   86  68  54 CALM      29.85F
BUMPASS*       MOCLDY    82  64  55 S3        29.86F
FARMVILLE*     PTSUNNY   85  59  41 SW10      29.85F
CREWE*         FAIR      85  58  40 SW6       29.86F
FORT PICKETT*  MOCLDY    85  58  39 CALM      29.87F
CHASE CITY*    FAIR      86  64  48 SW3       29.88F
CLARKSVILLE*   FAIR      86  68  54 SW8       29.88F
SOUTH HILL*    SUNNY     85  68  57 SW10      29.94F
LAWRENCEVILLE* FAIR      85  64  48 SW10      29.88F
EMPORIA*       SUNNY     86  64  48 SW6       29.88F
$$

VAZ088>098-272000-
SOUTHEAST VIRGINIA

CITY           SKY/WX    TMP DP  RH WIND       PRES   REMARKS
NORFOLK        SUNNY     84  64  50 NE7       29.87F
VIRGINIA BEACH MOSUNNY   80  64  58 E10       29.86F
NORFOLK NAVAL  NOT AVBL
WEST POINT*    PTSUNNY   82  61  48 S5        29.88S
SALUDA*        CLOUDY    77  63  61 E5        29.88S
NEWPORT NEWS   SUNNY     84  62  47 S8        29.87F
LANGLEY AFB    SUNNY     83  65  54 SE7       29.86F
FORT EUSTIS    SUNNY     87  64  45 S7        29.84F
WILLIAMSBURG*  SUNNY     88  66  48 CALM      29.87F
HR EXEC AP*    FAIR      86  63  45 SW6       29.84F
FRANKLIN*      SUNNY     85  62  45 SW7       29.88S
US460-WAKEFLD  SUNNY     86  63  45 SW6       29.86F
$$

VAZ020-022-025-037-045-272000-
WEST CENTRAL AND SOUTHWEST VIRGINIA

CITY           SKY/WX    TMP DP  RH WIND       PRES   REMARKS
STAUNTON*      PTSUNNY   80  64  57 SW10      29.89F
WAYNESBORO*    CLOUDY    79  67  66 CALM      29.90S
HOT SPRINGS VA CLOUDY    70  54  56 W12G18    30.02F
LYNCHBURG      MOSUNNY   86  65  49 W8        29.88F
DANVILLE       MOSUNNY   85  68  56 SW10      29.88F
SOUTH BOSTON*  FAIR      86  63  46 W5        29.88F
MARTINSVILLE   MOSUNNY   85  66  53 W5        29.92F
ROANOKE        PTSUNNY   83  64  52 W9G21     29.91S
BLACKSBURG     CLOUDY    77  64  63 W3        29.99F
DUBLIN*        CLOUDY    80  57  44 W12G17    29.99S
MARION*        CLOUDY    75  64  66 SW12G21   30.03F
HILLSVILLE*    CLOUDY    75  56  51 W8G20     30.01S
RICHLANDS*     CLOUDY    73  65  75 SW6       30.02F
WISE*          CLOUDY    73  63  68 CALM      30.03F
ABINGDON*      CLOUDY    77  66  69 NW8       30.01S
$$

MDZ021>025-VAZ099-100-272000-
SOUTHERN MARYLAND AND THE DELMARVA PENINSULA

CITY           SKY/WX    TMP DP  RH WIND       PRES   REMARKS
PATUXENT RIVER CLOUDY    71  63  75 SE10      29.89R
BAY BRIDGE APT CLOUDY    70  59  68 N5        29.90F
LEONARDTOWN    CLOUDY    73  61  64 NE3       29.91R
DOVER          CLOUDY    71  63  74 NE7       29.89S
GEORGETOWN     CLOUDY    76  59  55 VRB5      29.90S
EASTON         CLOUDY    73  59  60 N5        29.94R
CAMBRIDGE      CLOUDY    75  57  53 CALM      29.90R
SALISBURY      MOSUNNY   78  60  53 SE10      29.88S
OCEAN CITY     MOSUNNY   70  56  61 S9        29.91F
WALLOPS ISLAND MOSUNNY   74  57  55 SE10      29.90F
ACCOMACK*      MOSUNNY   76  -6   4 S10       29.89S
$$

NCZ012>017-030>032-272000-
NORTH CENTRAL AND EASTERN NORTH CAROLINA

CITY           SKY/WX    TMP DP  RH WIND       PRES   REMARKS
ROANOKE RAPIDS FAIR      86  64  48 W8        29.88F
RALEIGH        PTSUNNY   88  69  53 SW13      29.91F
ELIZABETH CITY SUNNY     86  66  51 SW7       29.88F
AHOSKIE*       NOT AVBL
EDENTON*       SUNNY     87  62  44 SW6       29.90S
CURRITUCK*     SUNNY     86  62  45 W10       29.88F
KILL DEVIL HLS SUNNY     84  57  40 W5        29.88F
MANTEO         MOSUNNY   83  63  50 CALM      29.90S
CAPE HATTERAS  MOSUNNY   81  68  64 SW12G21   29.93F
TARBORO*       NOT AVBL
GOLDSBORO      MOSUNNY   89  64  43 SW7       29.89F
WASHINGTON     SUNNY     88  65  45 SW10      29.90S
GREENVILLE     MOSUNNY   88  63  42 W5        29.92S
NEW BERN       MOSUNNY   89  66  46 W9        29.91F
WILMINGTON     MOSUNNY   88  68  51 SW13      29.92F
$$

VAZ048-272000-
ELSEWHERE

CITY           SKY/WX    TMP DP  RH WIND       PRES   REMARKS
HARRISBURG PA  CLOUDY    71  55  56 CALM      29.90S
BALTIMORE      CLOUDY    71  59  65 S3        29.89F
ANNAPOLIS      CLOUDY    71  58  63 CALM      29.90S
ANDREWS AFB    CLOUDY    71  60  70 E6        29.89S
PHILADELPHIA   CLOUDY    71  52  50 W10       29.90S
HENDERSON NC   SUNNY     82  62  51 W5        29.89F
GREENSBORO     PTSUNNY   85  65  51 SW16G22   29.91F
ROCKY MOUNT    MOSUNNY   87  65  47 W9        29.90F
$$

VAZ100-272000-
MARINE

STATION/POSITION TIME  TEMP    WIND        PRES    WAVE   SWELL
                       AIR SEA DIR/SP/G            HT/PER HT/PER
                 (UTC) (F)     (DEG/KT/KT) (MB)    (FT/S) (FT/S)
CAPE MAY NJ      1842   73 63  330/  4/  6 1012.0F
LEWES DE         1842   71 65  130/  5/  8 1012.4S
15NM E FENWICK I 1850   63 63  120/  4/  6 1013.3S   2/ 7   2/ 7
WACHAPREAGUE VA  1842   71 76  170/  8/ 10 1012.3S
THOMAS POINT MD  1900   67 65   20/  4/  4   N/A
GOOSES REEF MD   1850   70     170/  4/  4 1013.0R
COVE POINT MD    1842   69     160/  7/  8 1012.9R
SOLOMONS ISLAND  1842   70 68  130/  9/ 11   N/A
BISHOPS HEAD MD  1842   72 76  160/  6/  7 1012.5F
PINEY POINT MD   1848          120/ 10/ 10   N/A
POTOMAC MD       1850   71     150/  8/ 10 1010.8S
CAMBRIDGE MD     1842   76 72                N/A
LEWISETTA VA     1842   77 71  190/  4/  4 1011.3R
RAPPAHANNOCK LGT 1848          130/  7/  8 1012.7S
STINGRAY PT      1850   71     190/  6/  8 1012.5R
YORK RVR RNG VA  1842   71     130/ 10/ 11 1011.0F
YORKTOWN VA      1842   73 68   80/ 10/ 12 1011.2F
JAMESTOWN VA     1850   80     130/  4/  6   N/A
DOMINION TERM VA 1842   79      30/  3/  5 1011.7F
KIPTOPEKE VA     1842      67  170/  7/  8   N/A
CHES BAY BRIDGE  1848   71 67  110/  8/ 10 1011.6F
CAPE HENRY VA    1848   73     140/  9/ 13   N/A
WILLOUBY STN VA  1842   72      90/  7/  8 1011.6F
S CRANEY ISL VA  1842   81      40/  3/  4 1011.3F
CAPE HENRY BUOY  1842      66                N/A     2/ 8
1ST LANDING BUOY 1850   70                 1012.0F
CAPE CHARLES BUO 1851      65                N/A     1/ 8
64NM E OF VA BCH 1850   67 66  210/  4/  4 1013.1S   3/ 7   3/ 7
DUCK PIER NC     1848   73 64  130/  5/  6 1011.7F
44100 DUCK FRF   1835      67                N/A     2/ 8
44056 DUCK FRF   1830      67                N/A     1/ 8
OREGON INLET NC  1842   76 75  190/ 17/ 19 1012.3F
HATTERAS NC      1848   78 73  210/ 12/ 16 1013.2F
DIAMOND SHLS NC  1850   77 77  230/ 14/ 16 1013.4F   3/ 7   2/ 7
CAPE LOOKOUT NC  1800   79     210/ 11/ 13 1013.7F
$$




USA.gov is the U.S. government's official web portal to all federal, state and local government web resources and services.